Bishop, CA

3:21 AM PDT on June 25, 2017 (GMT -0700)
Bishop

Weather History for KBIH - October, 2012

Change the Weather History Date:

Tuesday, October 23, 2012

  Actual Average Record
Temperature  
Mean Temperature 51 °F 54 °F  
Max Temperature 64 °F 73 °F 93 °F (1959)
Min Temperature 37 °F 35 °F 24 °F (1961)
Degree Days  
Heating Degree Days 14 11  
Month to date heating degree days 125 163  
Since 1 July heating degree days 125 206  
Cooling Degree Days 0 0  
Month to date cooling degree days 15 7  
Year to date cooling degree days 1161 1103  
Moisture  
Dew Point 14 °F    
Average Humidity 28    
Maximum Humidity 44    
Minimum Humidity 12    
Precipitation  
Precipitation 0.00 in 0.01 in 0.09 in (1953)
Month to date precipitation 0.42 0.20  
Year to date precipitation 2.67 3.75  
Snow  
Snow 0.00 in 0.00 in - ()
Month to date snowfall 0.0 0.0  
Since 1 July snowfall 0.0 0.0  
Since 1 September snowfall 0.0 0.0  
Snow Depth 0.00 in    
Sea Level Pressure  
Sea Level Pressure 29.75 in    
Wind  
Wind Speed 6 mph (North)    
Max Wind Speed 21 mph    
Max Gust Speed 26 mph    
Visibility 10 miles    
Events      
T = Trace of Precipitation, MM = Missing Value Source: NWS Daily Summary

Daily Weather History Graph

Daily Weather History Graph

Search for Another Location

Airport or City:

Trip Planner

Search our weather history database for the weather conditions in past years. The results will help you decide how hot, cold, wet, or windy it might be!

Date:

Astronomy

Oct. 23, 2012 Rise Set
Actual Time 7:09 AM PDT 6:05 PM PDT
Civil Twilight 6:43 AM PDT 6:31 PM PDT
Nautical Twilight 6:12 AM PDT 7:02 PM PDT
Astronomical Twilight 5:42 AM PDT 7:32 PM PDT
Moon 2:45 PM PDT (10/23) 1:14 AM PDT (10/23)
Length of Visible Light 11h 48m
Length of Day
10h 55m
Waxing Gibbous, 67% of the Moon is Illuminated
Oct 23
Waxing Gibbous
Oct 29
Full
Nov 6
Last Quarter
Nov 13
New
Nov 20
First Quarter

Hourly Weather History & Observations

Time (PDT) Temp. Windchill Dew Point Humidity Pressure Visibility Wind Dir Wind Speed Gust Speed Precip Events Conditions
12:56 AM 45.0 °F 40.6 °F 9.0 °F 23% 29.68 in 10.0 mi SE 8.1 mph - N/A   Clear
1:56 AM 45.0 °F 39.7 °F 6.1 °F 20% 29.69 in 10.0 mi ENE 10.4 mph - N/A   Clear
2:56 AM 44.6 °F 37.8 °F 12.2 °F 27% 29.77 in 10.0 mi North 15.0 mph - N/A   Clear
3:56 AM 45.0 °F 38.5 °F 10.0 °F 24% 29.69 in 10.0 mi North 13.8 mph - N/A   Clear
4:56 AM 42.1 °F 38.4 °F 10.9 °F 28% 29.70 in 10.0 mi Variable 5.8 mph 23.0 mph N/A   Clear
6:56 AM 42.8 °F 36.6 °F 8.6 °F 25% 29.79 in 10.0 mi North 11.5 mph 17.3 mph N/A   Clear
8:56 AM 46.0 °F - 12.0 °F 25% 29.79 in 10.0 mi Calm Calm - N/A   Clear
9:56 AM 52.0 °F - 10.9 °F 19% 29.77 in 10.0 mi Calm Calm - N/A   Clear
10:56 AM 57.0 °F - 10.9 °F 16% 29.77 in 10.0 mi Calm Calm - N/A   Clear
11:56 AM 61.0 °F - 10.9 °F 14% 29.75 in 10.0 mi North 9.2 mph 17.3 mph N/A   Clear
12:56 PM 61.0 °F - 9.0 °F 13% 29.74 in 10.0 mi WSW 5.8 mph - N/A   Clear
1:56 PM 63.0 °F - 10.0 °F 13% 29.70 in 10.0 mi SSW 5.8 mph - N/A   Clear
2:56 PM 62.1 °F - 12.9 °F 15% 29.70 in 10.0 mi Calm Calm - N/A   Clear
3:56 PM 63.0 °F - 12.9 °F 14% 29.70 in 10.0 mi ENE 4.6 mph - N/A   Clear
4:56 PM 61.0 °F - 15.1 °F 17% 29.72 in 10.0 mi North 6.9 mph - N/A   Partly Cloudy
5:56 PM 55.9 °F - 18.0 °F 23% 29.73 in 10.0 mi North 10.4 mph - N/A   Clear
6:56 PM 50.0 °F - 21.0 °F 32% 29.76 in 10.0 mi NNE 9.2 mph - N/A   Clear
7:56 PM 48.0 °F - 19.9 °F 33% 29.81 in 10.0 mi NW 8.1 mph - N/A   Clear
8:56 PM 43.0 °F 40.3 °F 19.9 °F 40% 29.81 in 10.0 mi NW 4.6 mph - N/A   Clear
9:56 PM 42.1 °F 38.4 °F 19.9 °F 41% 29.83 in 10.0 mi North 5.8 mph - N/A   Clear
10:56 PM 39.9 °F - 19.9 °F 45% 29.83 in 10.0 mi Calm Calm - N/A   Clear
11:56 PM 41.0 °F 38.0 °F 19.9 °F 43% 29.83 in 10.0 mi NW 4.6 mph - N/A   Clear